Location: Staunton
(38.1490°N, 79.0720°W)
Time: 14:47:52
(UTC-04:00)

ISS - Pass Details

Date: 21 July 2017
Orbit: 400 x 408 km, 51.6° (Epoch: 21 July)

Event Time Altitude Azimuth Distance (km) Brightness Sun altitude
Rises 05:24:10 0° 313° (NW) 2,315 -0.1 -8.6°
Reaches altitude 10° 05:26:18 10° 320° (NW) 1,455 -1.1 -8.2°
Maximum altitude 05:29:27 46° 35° (NE) 549 -2.6 -7.7°
Drops below altitude 10° 05:32:36 10° 111° (ESE) 1,452 -0.5 -7.2°
Sets 05:34:44 0° 117° (ESE) 2,309 0.5 -6.9°
